Retour au catalogue

RASSVET-2 NO. 3

ActifCommunicationsSSO
NORAD 59781·PAYLOAD·🇷🇺 Russia
Ce nom de satellite n'a pas encore été confirmé par des sources officielles.

Lancé May 16, 2024 depuis Plesetsk Cosmodrome

Loading…

Prochains Passages (prochaines 24 heures)

TLE

FraisSource: Space-Track

Époque: Sep 14, 2026, 14:21 UTC

1 59781U 24092J   26257.59857012  .00000118  00000-0  60984-4 0  9997
2 59781  98.6796  16.5846 0011195 310.4040  49.6165 14.31875546121690

Suivez RASSVET-2 NO. 3 en temps réel avec AllMySat

Download on the App Store